THY6NS LTAI-LTFM

Flight info

Callsign THY6NS
Flight time 0h 55m
Altitude 36000
Route EKSEN1F/36R EKSEN UM855 SISPI
Aircraft A21N/M-SDE3FGHIRWY/LB1

Departure

Time 2026-02-20 22:53
Airport Antalya International Airport (LTAI)

Arrival

Time 2026-02-20 23:48
Airport İstanbul Airport (LTFM)
Time Latitude Longitude Altitude Speed Heading
2026-02-20 22:25 36.91295 30.80059 185 ft 0 kts 96°
2026-02-20 22:31 36.91296 30.80047 184 ft 2 kts 93°
2026-02-20 22:31 36.91298 30.80029 184 ft 2 kts 97°
2026-02-20 22:31 36.91299 30.80011 184 ft 2 kts 96°
2026-02-20 22:32 36.91301 30.79992 184 ft 2 kts 96°
2026-02-20 22:32 36.91302 30.79973 184 ft 2 kts 96°
2026-02-20 22:32 36.91304 30.79954 185 ft 2 kts 96°
2026-02-20 22:32 36.91305 30.79936 185 ft 2 kts 96°
2026-02-20 22:33 36.91307 30.79917 185 ft 2 kts 96°
2026-02-20 22:33 36.91314 30.79900 185 ft 2 kts 144°
2026-02-20 22:33 36.91327 30.79894 185 ft 1 kts 179°
2026-02-20 22:33 36.91330 30.79894 185 ft 0 kts 188°
2026-02-20 22:34 36.91310 30.79892 185 ft 2 kts 187°
2026-02-20 22:34 36.91306 30.79892 185 ft 0 kts 187°
2026-02-20 22:36 36.91299 30.79891 185 ft 2 kts 187°
2026-02-20 22:36 36.91258 30.79885 185 ft 7 kts 187°
2026-02-20 22:36 36.91204 30.79877 185 ft 8 kts 186°
2026-02-20 22:36 36.91114 30.79865 185 ft 15 kts 186°
2026-02-20 22:37 36.91006 30.79851 185 ft 15 kts 186°
2026-02-20 22:37 36.90916 30.79828 185 ft 9 kts 224°
2026-02-20 22:37 36.90879 30.79755 185 ft 10 kts 221°
2026-02-20 22:37 36.90808 30.79734 185 ft 11 kts 187°
2026-02-20 22:38 36.90728 30.79723 185 ft 13 kts 186°
2026-02-20 22:38 36.90596 30.79706 185 ft 23 kts 186°
2026-02-20 22:38 36.90463 30.79690 185 ft 12 kts 172°
2026-02-20 22:38 36.90403 30.79761 185 ft 13 kts 103°
2026-02-20 22:39 36.90384 30.79966 185 ft 29 kts 95°
2026-02-20 22:39 36.90362 30.80218 185 ft 28 kts 96°
2026-02-20 22:39 36.90342 30.80453 185 ft 26 kts 97°
2026-02-20 22:39 36.90323 30.80671 185 ft 20 kts 95°
2026-02-20 22:40 36.90258 30.80764 185 ft 14 kts 168°
2026-02-20 22:40 36.90156 30.80769 185 ft 14 kts 187°
2026-02-20 22:40 36.90038 30.80753 185 ft 24 kts 186°
2026-02-20 22:40 36.89869 30.80729 185 ft 24 kts 186°
2026-02-20 22:41 36.89693 30.80706 185 ft 31 kts 186°
2026-02-20 22:41 36.89466 30.80674 185 ft 29 kts 187°
2026-02-20 22:41 36.89272 30.80646 185 ft 27 kts 186°
2026-02-20 22:42 36.88914 30.80597 185 ft 24 kts 186°
2026-02-20 22:42 36.88750 30.80574 185 ft 23 kts 187°
2026-02-20 22:42 36.88569 30.80551 185 ft 27 kts 187°
2026-02-20 22:42 36.88380 30.80525 185 ft 26 kts 187°
2026-02-20 22:43 36.88205 30.80500 185 ft 20 kts 185°
2026-02-20 22:43 36.88116 30.80580 185 ft 16 kts 101°
2026-02-20 22:43 36.88105 30.80701 185 ft 7 kts 93°
2026-02-20 22:43 36.88129 30.80727 185 ft 5 kts
2026-02-20 22:44 36.88134 30.80728 185 ft 0 kts
2026-02-20 22:45 36.88135 30.80728 185 ft 0 kts
2026-02-20 22:52 36.88135 30.80729 185 ft 0 kts
2026-02-20 22:52 36.88321 30.80753 185 ft 66 kts
2026-02-20 22:52 36.89058 30.80852 185 ft 142 kts
2026-02-20 22:52 36.90199 30.81016 507 ft 175 kts
2026-02-20 22:53 36.91373 30.81297 1358 ft 176 kts 17°
2026-02-20 22:53 36.92507 30.81859 2200 ft 179 kts 25°
2026-02-20 22:53 36.93689 30.82488 2817 ft 194 kts 22°
2026-02-20 22:53 36.94979 30.83110 3447 ft 209 kts 22°
2026-02-20 22:54 36.96418 30.83780 4108 ft 224 kts 21°
2026-02-20 22:54 36.97912 30.84462 4845 ft 237 kts 21°
2026-02-20 22:54 36.99524 30.85202 5484 ft 255 kts 22°
2026-02-20 22:54 37.01226 30.86026 6168 ft 273 kts 23°
2026-02-20 22:55 37.03038 30.86915 7040 ft 283 kts 23°
2026-02-20 22:55 37.04810 30.87786 7948 ft 288 kts 22°
2026-02-20 22:55 37.06718 30.88623 8837 ft 296 kts 12°
2026-02-20 22:55 37.08779 30.88755 9693 ft 302 kts 351°
2026-02-20 22:56 37.10867 30.88290 10566 ft 307 kts 346°
2026-02-20 22:56 37.13024 30.87705 11183 ft 323 kts 345°
2026-02-20 22:56 37.15306 30.87081 11724 ft 341 kts 346°
2026-02-20 22:56 37.17640 30.86465 12444 ft 351 kts 346°
2026-02-20 22:57 37.20062 30.85844 13335 ft 355 kts 346°
2026-02-20 22:57 37.22545 30.85215 14199 ft 360 kts 345°
2026-02-20 22:57 37.24778 30.84652 14942 ft 364 kts 345°
2026-02-20 22:57 37.27473 30.83973 15745 ft 371 kts 345°
2026-02-20 22:58 37.30038 30.83327 16487 ft 376 kts 345°
2026-02-20 22:58 37.32591 30.82684 17195 ft 381 kts 345°
2026-02-20 22:58 37.35247 30.82013 17876 ft 387 kts 345°
2026-02-20 22:58 37.37881 30.81343 18530 ft 392 kts 344°
2026-02-20 22:59 37.40585 30.80692 19291 ft 394 kts 347°
2026-02-20 22:59 37.43349 30.80303 19985 ft 400 kts 353°
2026-02-20 22:59 37.46152 30.80241 20598 ft 405 kts 357°
2026-02-20 22:59 37.48998 30.80336 21161 ft 410 kts 358°
2026-02-20 23:00 37.51846 30.80476 21719 ft 414 kts 359°
2026-02-20 23:00 37.54778 30.80629 22227 ft 419 kts 358°
2026-02-20 23:00 37.57686 30.80777 22693 ft 423 kts 358°
2026-02-20 23:00 37.60645 30.80917 23167 ft 426 kts 358°
2026-02-20 23:01 37.63656 30.81058 23638 ft 429 kts 358°
2026-02-20 23:01 37.66649 30.81195 24042 ft 433 kts 357°
2026-02-20 23:01 37.69677 30.81328 24166 ft 445 kts 358°
2026-02-20 23:01 37.72848 30.81464 24171 ft 459 kts 358°
2026-02-20 23:02 37.76123 30.81500 24159 ft 469 kts 350°
2026-02-20 23:02 37.79253 30.80472 24142 ft 464 kts 328°
2026-02-20 23:02 37.81818 30.78177 24474 ft 445 kts 307°
2026-02-20 23:02 37.83860 30.75301 25364 ft 433 kts 305°
2026-02-20 23:03 37.85906 30.72597 26264 ft 424 kts 306°
2026-02-20 23:03 37.87948 30.69959 27095 ft 414 kts 306°
2026-02-20 23:03 37.90134 30.67585 27575 ft 427 kts 320°
2026-02-20 23:03 37.93001 30.66172 27867 ft 450 kts 343°
2026-02-20 23:04 37.96138 30.65678 28258 ft 455 kts 349°
2026-02-20 23:04 37.99316 30.65375 28534 ft 459 kts 350°
2026-02-20 23:04 38.02478 30.65053 28836 ft 460 kts 349°
2026-02-20 23:04 38.05664 30.64687 29146 ft 462 kts 348°
2026-02-20 23:05 38.08928 30.64283 29482 ft 463 kts 348°
2026-02-20 23:05 38.12158 30.63866 29741 ft 466 kts 348°
2026-02-20 23:05 38.15392 30.63440 29949 ft 468 kts 348°
2026-02-20 23:05 38.18654 30.63010 30194 ft 470 kts 348°
2026-02-20 23:06 38.21947 30.62576 30454 ft 472 kts 348°
2026-02-20 23:06 38.25229 30.62143 30673 ft 474 kts 348°
2026-02-20 23:06 38.28509 30.61710 30868 ft 476 kts 348°
2026-02-20 23:06 38.31802 30.61272 31111 ft 477 kts 348°
2026-02-20 23:07 38.35133 30.60823 31372 ft 478 kts 348°
2026-02-20 23:07 38.38473 30.60373 31614 ft 478 kts 347°
2026-02-20 23:07 38.41781 30.59927 31862 ft 479 kts 347°
2026-02-20 23:07 38.45123 30.59474 32058 ft 481 kts 347°
2026-02-20 23:08 38.48373 30.59033 32273 ft 482 kts 347°
2026-02-20 23:08 38.51718 30.58581 32527 ft 482 kts 347°
2026-02-20 23:08 38.55091 30.58125 32810 ft 481 kts 347°
2026-02-20 23:08 38.58392 30.57680 33105 ft 479 kts 346°
2026-02-20 23:09 38.61729 30.57227 33445 ft 477 kts 347°
2026-02-20 23:09 38.65035 30.56778 33738 ft 477 kts 346°
2026-02-20 23:09 38.68323 30.56331 33986 ft 476 kts 346°
2026-02-20 23:09 38.71629 30.55879 34235 ft 476 kts 346°
2026-02-20 23:10 38.74876 30.55294 34482 ft 471 kts 342°
2026-02-20 23:10 38.78122 30.54440 34681 ft 466 kts 338°
2026-02-20 23:10 38.81191 30.53359 34919 ft 460 kts 333°
2026-02-20 23:10 38.84238 30.52005 35132 ft 453 kts 329°
2026-02-20 23:11 38.87143 30.50437 35269 ft 448 kts 325°
2026-02-20 23:11 38.89952 30.48691 35405 ft 446 kts 323°
2026-02-20 23:11 38.92733 30.46891 35519 ft 446 kts 323°
2026-02-20 23:11 38.95541 30.45065 35657 ft 447 kts 323°
2026-02-20 23:12 38.98291 30.43285 35810 ft 446 kts 323°
2026-02-20 23:12 39.01085 30.41484 35951 ft 445 kts 323°
2026-02-20 23:12 39.06670 30.37886 36132 ft 449 kts 323°
2026-02-20 23:13 39.12343 30.34226 36139 ft 457 kts 323°
2026-02-20 23:13 39.18089 30.30518 36131 ft 466 kts 323°
2026-02-20 23:14 39.23960 30.26729 36140 ft 473 kts 323°
2026-02-20 23:14 39.29936 30.22865 36130 ft 479 kts 323°
2026-02-20 23:15 39.35939 30.18978 36122 ft 483 kts 323°
2026-02-20 23:15 39.41962 30.15068 36133 ft 485 kts 323°
2026-02-20 23:16 39.48080 30.11269 36107 ft 488 kts 327°
2026-02-20 23:16 39.54373 30.07762 36444 ft 490 kts 327°
2026-02-20 23:17 39.57520 30.06022 36077 ft 489 kts 327°
2026-02-20 23:17 39.60473 30.04390 36082 ft 476 kts 327°
2026-02-20 23:17 39.63461 30.02744 36105 ft 460 kts 327°
2026-02-20 23:17 39.66399 30.01105 36126 ft 456 kts 326°
2026-02-20 23:18 39.72186 29.97845 36388 ft 458 kts 327°
2026-02-20 23:18 39.75114 29.96200 35806 ft 456 kts 327°
2026-02-20 23:18 39.78052 29.94555 35564 ft 454 kts 327°
2026-02-20 23:19 39.80970 29.92919 35273 ft 456 kts 326°
2026-02-20 23:19 39.83879 29.91277 34604 ft 462 kts 326°
2026-02-20 23:19 39.86630 29.89719 33863 ft 468 kts 327°
2026-02-20 23:19 39.87506 29.89223 33631 ft 470 kts 327°
2026-02-20 23:20 39.90511 29.87521 32845 ft 475 kts 328°
2026-02-20 23:20 39.93580 29.85817 32155 ft 477 kts 329°
2026-02-20 23:20 39.96652 29.84164 31567 ft 477 kts 329°
2026-02-20 23:20 39.99755 29.82506 30953 ft 477 kts 330°
2026-02-20 23:21 40.02650 29.80956 30332 ft 475 kts 330°
2026-02-20 23:21 40.05741 29.79301 29684 ft 474 kts 330°
2026-02-20 23:21 40.08791 29.77660 29056 ft 472 kts 330°
2026-02-20 23:21 40.11834 29.76024 28454 ft 469 kts 331°
2026-02-20 23:22 40.14653 29.74503 27983 ft 464 kts 331°
2026-02-20 23:22 40.17495 29.72968 27553 ft 458 kts 331°
2026-02-20 23:22 40.20371 29.71417 27116 ft 453 kts 331°
2026-02-20 23:22 40.23257 29.69854 26737 ft 446 kts 331°
2026-02-20 23:23 40.26107 29.68308 26335 ft 440 kts 331°
2026-02-20 23:23 40.28922 29.66779 25903 ft 435 kts 331°
2026-02-20 23:23 40.31726 29.65252 25487 ft 431 kts 332°
2026-02-20 23:23 40.34497 29.63745 25073 ft 426 kts 332°
2026-02-20 23:24 40.37241 29.62248 24675 ft 421 kts 332°
2026-02-20 23:24 40.39928 29.60783 24276 ft 417 kts 332°
2026-02-20 23:24 40.42600 29.59323 23853 ft 413 kts 332°
2026-02-20 23:24 40.45260 29.57868 23451 ft 409 kts 332°
2026-02-20 23:25 40.47879 29.56433 23023 ft 406 kts 332°
2026-02-20 23:25 40.50502 29.55000 22637 ft 402 kts 333°
2026-02-20 23:25 40.53076 29.53590 22261 ft 398 kts 332°
2026-02-20 23:25 40.55628 29.52193 21821 ft 395 kts 333°
2026-02-20 23:26 40.58161 29.50804 21447 ft 391 kts 333°
2026-02-20 23:26 40.60681 29.49419 21047 ft 388 kts 333°
2026-02-20 23:26 40.65589 29.46718 20272 ft 382 kts 333°
2026-02-20 23:27 40.68023 29.45381 19877 ft 379 kts 333°
2026-02-20 23:27 40.70470 29.44032 19479 ft 377 kts 333°
2026-02-20 23:27 40.72892 29.42697 19156 ft 371 kts 334°
2026-02-20 23:27 40.75244 29.41401 18879 ft 364 kts 334°
2026-02-20 23:28 40.77564 29.40121 18550 ft 359 kts 334°
2026-02-20 23:28 40.79865 29.38850 18223 ft 354 kts 334°
2026-02-20 23:28 40.82144 29.37591 17901 ft 349 kts 334°
2026-02-20 23:28 40.84355 29.36367 17588 ft 344 kts 334°
2026-02-20 23:29 40.86554 29.35150 17274 ft 339 kts 334°
2026-02-20 23:29 40.88742 29.33939 16939 ft 333 kts 334°
2026-02-20 23:29 40.90802 29.32797 16334 ft 331 kts 334°
2026-02-20 23:29 40.92919 29.31619 15873 ft 330 kts 334°
2026-02-20 23:30 40.95042 29.30438 15551 ft 326 kts 334°
2026-02-20 23:30 40.97128 29.29278 15208 ft 324 kts 334°
2026-02-20 23:30 40.99219 29.28114 14856 ft 322 kts 335°
2026-02-20 23:30 41.01285 29.26965 14503 ft 320 kts 335°
2026-02-20 23:31 41.03348 29.25817 14153 ft 319 kts 335°
2026-02-20 23:31 41.05330 29.24712 13826 ft 317 kts 335°
2026-02-20 23:31 41.07367 29.23577 13491 ft 315 kts 335°
2026-02-20 23:31 41.09387 29.22450 13164 ft 312 kts 335°
2026-02-20 23:32 41.11399 29.21328 12685 ft 312 kts 335°
2026-02-20 23:32 41.13386 29.20217 12347 ft 309 kts 335°
2026-02-20 23:32 41.15380 29.19103 12017 ft 307 kts 335°
2026-02-20 23:32 41.17283 29.18039 11693 ft 305 kts 335°
2026-02-20 23:33 41.19144 29.16997 11373 ft 303 kts 336°
2026-02-20 23:33 41.21104 29.15899 11034 ft 301 kts 336°
2026-02-20 23:33 41.23051 29.14808 10670 ft 299 kts 336°
2026-02-20 23:33 41.24994 29.13718 10251 ft 299 kts 336°
2026-02-20 23:34 41.26890 29.12654 10099 ft 294 kts 336°
2026-02-20 23:34 41.28783 29.11593 9891 ft 287 kts 336°
2026-02-20 23:34 41.30606 29.10569 9627 ft 283 kts 336°
2026-02-20 23:34 41.32400 29.09561 9348 ft 278 kts 336°
2026-02-20 23:35 41.34197 29.08552 9066 ft 274 kts 336°
2026-02-20 23:35 41.35966 29.07556 8772 ft 270 kts 336°
2026-02-20 23:35 41.37680 29.06588 8485 ft 266 kts 336°
2026-02-20 23:35 41.39388 29.05626 8145 ft 264 kts 336°
2026-02-20 23:36 41.41074 29.04675 7816 ft 262 kts 336°
2026-02-20 23:36 41.42765 29.03721 7462 ft 260 kts 336°
2026-02-20 23:36 41.44463 29.02763 7104 ft 259 kts 336°
2026-02-20 23:36 41.46128 29.01822 6768 ft 258 kts 336°
2026-02-20 23:37 41.47740 29.00911 6444 ft 256 kts 336°
2026-02-20 23:37 41.49410 28.99966 6160 ft 252 kts 336°
2026-02-20 23:37 41.51065 28.99028 5882 ft 248 kts 336°
2026-02-20 23:37 41.52634 28.98140 5613 ft 244 kts 336°
2026-02-20 23:38 41.54214 28.97244 5311 ft 243 kts 336°
2026-02-20 23:38 41.55744 28.96378 5096 ft 242 kts 336°
2026-02-20 23:38 41.57251 28.95497 5041 ft 242 kts 329°
2026-02-20 23:38 41.58482 28.94076 4969 ft 238 kts 302°
2026-02-20 23:39 41.59340 28.92117 4869 ft 240 kts 296°
2026-02-20 23:39 41.60144 28.90116 4505 ft 241 kts 296°
2026-02-20 23:39 41.60943 28.88152 4182 ft 239 kts 296°
2026-02-20 23:39 41.61745 28.86217 4000 ft 236 kts 296°
2026-02-20 23:40 41.62564 28.84258 4000 ft 239 kts 297°
2026-02-20 23:40 41.63391 28.82295 4013 ft 239 kts 297°
2026-02-20 23:40 41.63987 28.80259 3977 ft 233 kts 271°
2026-02-20 23:40 41.63688 28.78159 3990 ft 226 kts 237°
2026-02-20 23:41 41.62650 28.76699 4001 ft 220 kts 207°
2026-02-20 23:41 41.61224 28.75835 4019 ft 219 kts 201°
2026-02-20 23:41 41.59774 28.75176 3982 ft 218 kts 190°
2026-02-20 23:41 41.58251 28.75018 3987 ft 217 kts 179°
2026-02-20 23:42 41.56729 28.75047 3975 ft 210 kts 178°
2026-02-20 23:42 41.55285 28.75089 3984 ft 208 kts 178°
2026-02-20 23:42 41.53815 28.75129 4001 ft 208 kts 178°
2026-02-20 23:42 41.52614 28.75160 3999 ft 209 kts 178°
2026-02-20 23:43 41.50948 28.75199 3980 ft 194 kts 179°
2026-02-20 23:43 41.49601 28.75225 3980 ft 192 kts 179°
2026-02-20 23:43 41.48268 28.75251 3944 ft 192 kts 178°
2026-02-20 23:43 41.46920 28.75277 3732 ft 191 kts 178°
2026-02-20 23:44 41.45601 28.75301 3477 ft 188 kts 178°
2026-02-20 23:44 41.44324 28.75324 3312 ft 178 kts 177°
2026-02-20 23:44 41.43091 28.75348 3038 ft 173 kts 178°
2026-02-20 23:44 41.41879 28.75370 2799 ft 169 kts 177°
2026-02-20 23:45 41.40754 28.75391 2567 ft 160 kts 177°
2026-02-20 23:45 41.39668 28.75411 2326 ft 152 kts 177°
2026-02-20 23:45 41.38618 28.75431 2120 ft 147 kts 177°
2026-02-20 23:45 41.37605 28.75450 1914 ft 142 kts 176°
2026-02-20 23:46 41.36618 28.75467 1732 ft 141 kts 175°
2026-02-20 23:46 41.35634 28.75486 1553 ft 141 kts 175°
2026-02-20 23:46 41.34645 28.75505 1369 ft 140 kts 175°
2026-02-20 23:46 41.33668 28.75524 1184 ft 140 kts 176°
2026-02-20 23:47 41.32688 28.75543 993 ft 139 kts 176°
2026-02-20 23:47 41.31715 28.75562 799 ft 139 kts 176°
2026-02-20 23:47 41.30745 28.75581 607 ft 138 kts 178°
2026-02-20 23:47 41.29785 28.75604 421 ft 135 kts 177°
2026-02-20 23:48 41.28852 28.75613 310 ft 134 kts 177°
2026-02-20 23:48 41.27939 28.75634 261 ft 115 kts 178°
2026-02-20 23:48 41.27307 28.75651 285 ft 66 kts 184°
2026-02-20 23:48 41.27031 28.75538 295 ft 23 kts 208°
2026-02-20 23:49 41.26895 28.75437 298 ft 20 kts 209°
2026-02-20 23:49 41.26873 28.75420 297 ft 2 kts 226°
2026-02-20 23:49 41.26867 28.75368 297 ft 6 kts 278°
2026-02-20 23:49 41.26873 28.75302 297 ft 7 kts 267°
2026-02-20 23:50 41.26841 28.75257 297 ft 7 kts 175°
2026-02-20 23:50 41.26784 28.75262 297 ft 8 kts 180°
2026-02-20 23:50 41.26702 28.75261 297 ft 13 kts 180°
2026-02-20 23:50 41.26609 28.75263 299 ft 13 kts 179°
2026-02-20 23:51 41.26520 28.75266 300 ft 12 kts 178°
2026-02-20 23:51 41.26438 28.75270 301 ft 11 kts 177°
2026-02-20 23:51 41.26356 28.75271 301 ft 12 kts 180°
2026-02-20 23:51 41.26266 28.75269 301 ft 12 kts 181°
2026-02-20 23:52 41.26231 28.75186 297 ft 13 kts 269°
2026-02-20 23:52 41.26228 28.75059 298 ft 13 kts 270°
2026-02-20 23:52 41.26171 28.74986 298 ft 13 kts 175°
2026-02-20 23:52 41.26088 28.75023 298 ft 5 kts 163°
2026-02-20 23:53 41.26064 28.74995 298 ft 5 kts 247°
2026-02-20 23:53 41.26049 28.74941 297 ft 6 kts 251°
2026-02-20 23:53 41.26039 28.74901 297 ft 1 kts 251°